| time (UTC) | temp F | wind direction | speed MPH | gust MPH | rain 1hr in | rain 24hr in | rain mn in | humidity % | barometer mb |
| 20260901181907 | 88 | 212 | 2.0 | 8.0 | 0.00 | 0.00 | 0.00 | 75 | 1012.3 |
| 20260901181402 | 87 | 315 | 3.0 | 8.0 | 0.00 | 0.00 | 0.00 | 78 | 1012.4 |
| 20260901180902 | 87 | 58 | 3.0 | 6.0 | 0.00 | 0.00 | 0.00 | 77 | 1012.4 |
| 20260901180403 | 87 | 5 | 3.0 | 6.0 | 0.00 | 0.00 | 0.00 | 78 | 1012.5 |
| 20260901175902 | 86 | 319 | 4.0 | 8.0 | 0.00 | 0.00 | 0.00 | 79 | 1012.6 |
| 20260901175359 | 86 | 329 | 4.0 | 8.0 | 0.00 | 0.00 | 0.00 | 79 | 1012.6 |
| 20260901174901 | 87 | 277 | 2.0 | 8.0 | 0.00 | 0.00 | 0.00 | 79 | 1012.7 |
| 20260901174356 | 86 | 291 | 3.0 | 7.0 | 0.00 | 0.00 | 0.00 | 79 | 1012.7 |
| 20260901173859 | 86 | 306 | 3.0 | 7.0 | 0.00 | 0.00 | 0.00 | 81 | 1012.8 |
| 20260901173854 | 86 | 248 | 3.0 | 7.0 | 0.00 | 0.00 | 0.00 | 79 | 1012.7 |
| 20260901172853 | 86 | 5 | 3.0 | 7.0 | 0.00 | 0.00 | 0.00 | 80 | 1012.8 |
| 20260901172624 | 86 | 314 | 3.0 | 7.0 | 0.00 | 0.00 | 0.00 | 80 | 1012.9 |
| 20260901171854 | 86 | 288 | 1.0 | 7.0 | 0.00 | 0.00 | 0.00 | 82 | 1012.9 |
| 20260901171348 | 85 | 342 | 2.0 | 6.0 | 0.00 | 0.00 | 0.00 | 83 | 1013.1 |
| 20260901170847 | 85 | 326 | 3.0 | 8.0 | 0.00 | 0.00 | 0.00 | 81 | 1013.1 |
| 20260901170347 | 85 | 290 | 3.0 | 8.0 | 0.00 | 0.00 | 0.00 | 82 | 1013.1 |
| 20260901170120 | 85 | 42 | 3.0 | 5.0 | 0.00 | 0.00 | 0.00 | 82 | 1013.2 |
| 20260901165345 | 85 | 73 | 3.0 | 7.0 | 0.00 | 0.00 | 0.00 | 84 | 1013.1 |
| 20260901164847 | 84 | 26 | 3.0 | 7.0 | 0.00 | 0.00 | 0.00 | 83 | 1013.1 |
| 20260901164340 | 83 | 5 | 3.0 | 7.0 | 0.00 | 0.00 | 0.00 | 84 | 1013.2 |
| 20260901163839 | 83 | 19 | 3.0 | 7.0 | 0.00 | 0.00 | 0.00 | 84 | 1013.2 |
| 20260901163339 | 84 | 55 | 3.0 | 5.0 | 0.00 | 0.00 | 0.00 | 84 | 1013.3 |
| 20260901162840 | 84 | 31 | 3.0 | 8.0 | 0.00 | 0.00 | 0.00 | 85 | 1013.3 |
| 20260901162339 | 83 | 320 | 4.0 | 8.0 | 0.00 | 0.00 | 0.00 | 86 | 1013.5 |
| 20260901161840 | 83 | 325 | 3.0 | 5.0 | 0.00 | 0.00 | 0.00 | 85 | 1013.6 |
| 20260901161337 | 84 | 152 | 2.0 | 4.0 | 0.00 | 0.00 | 0.00 | 84 | 1013.6 |
| 20260901160835 | 84 | 313 | 2.0 | 5.0 | 0.00 | 0.00 | 0.00 | 84 | 1013.6 |
| 20260901160336 | 83 | 306 | 2.0 | 5.0 | 0.00 | 0.00 | 0.00 | 86 | 1013.6 |
| 20260901155836 | 82 | 46 | 2.0 | 4.0 | 0.00 | 0.00 | 0.00 | 87 | 1013.6 |
| 20260901155333 | 82 | 19 | 1.0 | 4.0 | 0.00 | 0.00 | 0.00 | 89 | 1013.6 |
| 20260901154833 | 81 | 159 | 1.0 | 2.0 | 0.00 | 0.00 | 0.00 | 91 | 1013.6 |
| 20260901154327 | 80 | 143 | 2.0 | 4.0 | 0.00 | 0.00 | 0.00 | 91 | 1013.5 |
| 20260901153826 | 80 | 143 | 2.0 | 5.0 | 0.00 | 0.00 | 0.00 | 91 | 1013.5 |
| 20260901153324 | 80 | 166 | 2.0 | 5.0 | 0.00 | 0.00 | 0.00 | 93 | 1013.6 |
| 20260901152821 | 79 | 159 | 2.0 | 5.0 | 0.00 | 0.00 | 0.00 | 95 | 1013.5 |
| 20260901152323 | 78 | 153 | 1.0 | 3.0 | 0.00 | 0.00 | 0.00 | 96 | 1013.5 |
| 20260901151820 | 76 | 313 | 1.0 | 4.0 | 0.00 | 0.00 | 0.00 | 97 | 1013.5 |
| 20260901151814 | 77 | 184 | 1.0 | 3.0 | 0.00 | 0.00 | 0.00 | 97 | 1013.5 |
| 20260901150813 | 76 | 294 | 1.0 | 4.0 | 0.00 | 0.00 | 0.00 | 97 | 1013.5 |
| 20260901150548 | 76 | 323 | 1.0 | 4.0 | 0.00 | 0.00 | 0.00 | 97 | 1013.5 |
| 20260901145813 | 76 | 263 | 1.0 | 4.0 | 0.00 | 0.00 | 0.00 | 97 | 1013.5 |
| 20260901145545 | 76 | 314 | 1.0 | 3.0 | 0.00 | 0.00 | 0.00 | 97 | 1013.4 |
| 20260901144812 | 76 | 334 | 2.0 | 5.0 | 0.00 | 0.00 | 0.00 | 97 | 1013.4 |
| 20260901144807 | 76 | 329 | 1.0 | 4.0 | 0.00 | 0.00 | 0.00 | 97 | 1013.3 |
| 20260901143803 | 76 | 327 | 3.0 | 5.0 | 0.00 | 0.00 | 0.00 | 97 | 1013.4 |
| 20260901143302 | 76 | 298 | 2.0 | 5.0 | 0.00 | 0.00 | 0.00 | 97 | 1013.3 |
| 20260901142801 | 76 | 322 | 3.0 | 4.0 | 0.00 | 0.00 | 0.00 | 97 | 1013.3 |
| 20260901142305 | 76 | 311 | 3.0 | 4.0 | 0.00 | 0.00 | 0.00 | 97 | 1013.3 |
| 20260901141802 | 75 | 328 | 2.0 | 4.0 | 0.00 | 0.00 | 0.00 | 97 | 1013.3 |
| 20260901141300 | 75 | 323 | 3.0 | 4.0 | 0.00 | 0.00 | 0.00 | 97 | 1013.3 |
| 20260901140759 | 75 | 321 | 3.0 | 5.0 | 0.00 | 0.00 | 0.00 | 97 | 1013.3 |
| 20260901140257 | 75 | 313 | 1.0 | 5.0 | 0.00 | 0.00 | 0.00 | 97 | 1013.3 |
| 20260901135757 | 75 | 31 | 0.0 | 0.0 | 0.00 | 0.00 | 0.00 | 97 | 1013.3 |
| 20260901135257 | 75 | 46 | 0.0 | 0.0 | 0.00 | 0.00 | 0.00 | 98 | 1013.3 |
| 20260901134758 | 75 | 35 | 0.0 | 0.0 | 0.00 | 0.00 | 0.00 | 98 | 1013.2 |
| 20260901134257 | 75 | 35 | 0.0 | 0.0 | 0.00 | 0.00 | 0.00 | 98 | 1013.2 |
| 20260901133753 | 75 | 35 | 0.0 | 0.0 | 0.00 | 0.00 | 0.00 | 97 | 1013.2 |
| 20260901133253 | 75 | 34 | 0.0 | 0.0 | 0.00 | 0.00 | 0.00 | 97 | 1013.2 |
| 20260901132753 | 75 | 32 | 0.0 | 0.0 | 0.00 | 0.00 | 0.00 | 97 | 1013.1 |
| 20260901132253 | 74 | 325 | 0.0 | 0.0 | 0.00 | 0.00 | 0.00 | 97 | 1013.3 |
| 20260901131753 | 74 | 322 | 0.0 | 0.0 | 0.00 | 0.00 | 0.00 | 97 | 1013.3 |
| 20260901131253 | 74 | 321 | 0.0 | 0.0 | 0.00 | 0.00 | 0.00 | 98 | 1013.3 |
| 20260901131021 | 74 | 301 | 0.0 | 0.0 | 0.00 | 0.00 | 0.00 | 98 | 1013.4 |
| 20260901130520 | 74 | 284 | 0.0 | 0.0 | 0.00 | 0.00 | 0.00 | 97 | 1013.4 |
| 20260901125749 | 74 | 194 | 0.0 | 0.0 | 0.00 | 0.00 | 0.00 | 97 | 1013.4 |
| 20260901125521 | 74 | 193 | 0.0 | 0.0 | 0.00 | 0.00 | 0.00 | 97 | 1013.4 |
| 20260901124750 | 74 | 188 | 0.0 | 0.0 | 0.00 | 0.00 | 0.00 | 98 | 1013.3 |
| 20260901124521 | 73 | 196 | 0.0 | 0.0 | 0.00 | 0.00 | 0.00 | 97 | 1013.3 |
| 20260901124017 | 73 | 198 | 0.0 | 0.0 | 0.00 | 0.00 | 0.00 | 98 | 1013.3 |
| 20260901123246 | 73 | 200 | 0.0 | 0.0 | 0.00 | 0.00 | 0.00 | 97 | 1013.4 |
| 20260901123017 | 72 | 186 | 0.0 | 0.0 | 0.00 | 0.00 | 0.00 | 97 | 1013.3 |
| 20260901122245 | 72 | 174 | 0.0 | 0.0 | 0.00 | 0.00 | 0.00 | 97 | 1013.3 |
| 20260901121746 | 72 | 180 | 0.0 | 0.0 | 0.00 | 0.00 | 0.00 | 97 | 1013.1 |
| 20260901121245 | 72 | 190 | 0.0 | 0.0 | 0.00 | 0.00 | 0.00 | 97 | 1013.2 |
| 20260901120744 | 72 | 193 | 0.0 | 0.0 | 0.00 | 0.00 | 0.00 | 97 | 1013.1 |
| 20260901120242 | 72 | 193 | 0.0 | 0.0 | 0.00 | 0.00 | 0.00 | 97 | 1013.0 |
| 20260901115742 | 71 | 186 | 0.0 | 0.0 | 0.00 | 0.00 | 0.00 | 97 | 1012.8 |
| 20260901115241 | 71 | 188 | 0.0 | 0.0 | 0.00 | 0.00 | 0.00 | 97 | 1012.8 |
| 20260901114741 | 71 | 193 | 0.0 | 0.0 | 0.00 | 0.00 | 0.00 | 97 | 1012.7 |
| 20260901114242 | 71 | 186 | 0.0 | 0.0 | 0.00 | 0.00 | 0.00 | 97 | 1012.6 |
| 20260901113738 | 72 | 200 | 0.0 | 0.0 | 0.00 | 0.00 | 0.00 | 97 | 1012.7 |
| 20260901113239 | 72 | 198 | 0.0 | 0.0 | 0.00 | 0.00 | 0.00 | 97 | 1012.7 |
| 20260901112735 | 72 | 197 | 0.0 | 0.0 | 0.00 | 0.00 | 0.00 | 97 | 1012.6 |
| 20260901112235 | 71 | 196 | 0.0 | 0.0 | 0.00 | 0.00 | 0.00 | 97 | 1012.5 |
| 20260901111737 | 71 | 194 | 0.0 | 0.0 | 0.00 | 0.00 | 0.00 | 97 | 1012.4 |
| 20260901111235 | 71 | 193 | 0.0 | 0.0 | 0.00 | 0.00 | 0.00 | 97 | 1012.4 |
| 20260901110736 | 71 | 189 | 0.0 | 0.0 | 0.00 | 0.00 | 0.00 | 97 | 1012.4 |
| 20260901110234 | 71 | 189 | 0.0 | 0.0 | 0.00 | 0.00 | 0.00 | 97 | 1012.3 |
| 20260901110007 | 72 | 187 | 0.0 | 0.0 | 0.00 | 0.00 | 0.00 | 96 | 1012.3 |
| 20260901105232 | 72 | 188 | 0.0 | 0.0 | 0.00 | 0.00 | 0.00 | 96 | 1012.3 |
| 20260901104729 | 72 | 192 | 0.0 | 0.0 | 0.00 | 0.00 | 0.00 | 96 | 1012.2 |
| 20260901104230 | 72 | 192 | 0.0 | 0.0 | 0.00 | 0.00 | 0.00 | 97 | 1012.2 |
| 20260901103729 | 72 | 188 | 0.0 | 0.0 | 0.00 | 0.00 | 0.00 | 96 | 1012.2 |
| 20260901103457 | 72 | 186 | 0.0 | 0.0 | 0.00 | 0.00 | 0.00 | 96 | 1012.1 |
| 20260901102724 | 72 | 186 | 0.0 | 0.0 | 0.00 | 0.00 | 0.00 | 96 | 1012.1 |
| 20260901102225 | 72 | 186 | 0.0 | 0.0 | 0.00 | 0.01 | 0.00 | 96 | 1012.0 |
| 20260901102220 | 72 | 186 | 0.0 | 0.0 | 0.00 | 0.01 | 0.00 | 96 | 1012.1 |
| 20260901101216 | 72 | 186 | 0.0 | 0.0 | 0.00 | 0.01 | 0.00 | 96 | 1012.1 |
| 20260901100944 | 72 | 180 | 0.0 | 0.0 | 0.00 | 0.01 | 0.00 | 96 | 1012.0 |
| 20260901100213 | 72 | 182 | 0.0 | 0.0 | 0.00 | 0.01 | 0.00 | 96 | 1012.0 |
| 20260901095708 | 72 | 182 | 0.0 | 0.0 | 0.00 | 0.01 | 0.00 | 96 | 1012.1 |
| 20260901095210 | 72 | 183 | 0.0 | 0.0 | 0.00 | 0.01 | 0.00 | 96 | 1012.0 |
| 20260901094941 | 72 | 185 | 0.0 | 0.0 | 0.00 | 0.01 | 0.00 | 96 | 1012.1 |
| 20260901094208 | 73 | 184 | 0.0 | 0.0 | 0.00 | 0.01 | 0.00 | 96 | 1012.1 |
| 20260901093704 | 73 | 187 | 0.0 | 0.0 | 0.00 | 0.01 | 0.00 | 96 | 1012.3 |
| 20260901093205 | 73 | 187 | 0.0 | 0.0 | 0.00 | 0.01 | 0.00 | 96 | 1012.3 |
| 20260901092659 | 73 | 187 | 0.0 | 1.0 | 0.00 | 0.01 | 0.00 | 96 | 1012.4 |
| 20260901092159 | 73 | 187 | 0.0 | 1.0 | 0.00 | 0.04 | 0.00 | 96 | 1012.3 |
| 20260901091700 | 73 | 188 | 0.0 | 0.0 | 0.00 | 0.04 | 0.00 | 96 | 1012.2 |
| 20260901091656 | 73 | 188 | 0.0 | 0.0 | 0.00 | 0.04 | 0.00 | 96 | 1012.3 |
| 20260901090931 | 73 | 188 | 0.0 | 0.0 | 0.00 | 0.04 | 0.00 | 96 | 1012.2 |
| 20260901090157 | 73 | 185 | 0.0 | 0.0 | 0.00 | 0.04 | 0.00 | 96 | 1012.2 |
| 20260901085652 | 73 | 184 | 0.0 | 0.0 | 0.00 | 0.04 | 0.00 | 95 | 1012.2 |
| 20260901085152 | 73 | 182 | 0.0 | 0.0 | 0.00 | 0.04 | 0.00 | 96 | 1012.1 |
| 20260901084654 | 74 | 182 | 0.0 | 0.0 | 0.00 | 0.04 | 0.00 | 96 | 1012.1 |
| 20260901084425 | 74 | 182 | 0.0 | 0.0 | 0.00 | 0.04 | 0.00 | 96 | 1012.1 |
| 20260901083650 | 74 | 182 | 0.0 | 0.0 | 0.00 | 0.04 | 0.00 | 96 | 1012.0 |
| 20260901083151 | 74 | 182 | 0.0 | 0.0 | 0.00 | 0.04 | 0.00 | 96 | 1012.0 |
| 20260901082645 | 74 | 182 | 0.0 | 0.0 | 0.00 | 0.04 | 0.00 | 95 | 1011.9 |
| 20260901082142 | 74 | 183 | 0.0 | 1.0 | 0.00 | 0.04 | 0.00 | 95 | 1011.9 |
| 20260901081640 | 74 | 182 | 0.0 | 1.0 | 0.00 | 0.04 | 0.00 | 95 | 1012.0 |
| 20260901081138 | 74 | 182 | 0.0 | 0.0 | 0.00 | 0.04 | 0.00 | 95 | 1012.0 |
| 20260901080638 | 74 | 182 | 0.0 | 0.0 | 0.00 | 0.04 | 0.00 | 95 | 1012.0 |
| 20260901080407 | 74 | 179 | 0.0 | 0.0 | 0.00 | 0.04 | 0.00 | 95 | 1011.9 |
| 20260901075634 | 74 | 179 | 0.0 | 0.0 | 0.00 | 0.04 | 0.00 | 95 | 1011.9 |
| 20260901075136 | 74 | 179 | 0.0 | 0.0 | 0.00 | 0.04 | 0.00 | 95 | 1011.9 |
| 20260901074635 | 74 | 179 | 0.0 | 0.0 | 0.00 | 0.04 | 0.00 | 95 | 1011.9 |
| 20260901074133 | 74 | 179 | 0.0 | 0.0 | 0.00 | 0.04 | 0.00 | 95 | 1011.9 |
| 20260901073633 | 74 | 179 | 1.0 | 2.0 | 0.00 | 0.04 | 0.00 | 95 | 1011.9 |
| 20260901073130 | 74 | 179 | 1.0 | 4.0 | 0.00 | 0.04 | 0.00 | 95 | 1011.9 |
| 20260901072630 | 75 | 179 | 2.0 | 4.0 | 0.00 | 0.05 | 0.00 | 95 | 1011.8 |
| 20260901072403 | 75 | 188 | 2.0 | 4.0 | 0.00 | 0.05 | 0.00 | 95 | 1011.8 |
| 20260901071629 | 75 | 188 | 1.0 | 4.0 | 0.00 | 0.05 | 0.00 | 95 | 1011.7 |
| 20260901071127 | 75 | 176 | 0.0 | 3.0 | 0.00 | 0.05 | 0.00 | 94 | 1011.7 |
| 20260901070626 | 75 | 176 | 0.0 | 2.0 | 0.00 | 0.05 | 0.00 | 95 | 1011.6 |
| 20260901070120 | 75 | 176 | 1.0 | 3.0 | 0.00 | 0.05 | 0.00 | 95 | 1011.7 |
| 20260901065852 | 75 | 176 | 2.0 | 3.0 | 0.00 | 0.05 | 0.00 | 94 | 1011.7 |
| 20260901065347 | 75 | 175 | 2.0 | 3.0 | 0.00 | 0.05 | 0.00 | 94 | 1011.6 |
| 20260901064614 | 75 | 175 | 2.0 | 3.0 | 0.00 | 0.05 | 0.00 | 94 | 1011.6 |
| 20260901064116 | 75 | 175 | 2.0 | 5.0 | 0.00 | 0.05 | 0.00 | 94 | 1011.6 |
| 20260901063612 | 75 | 173 | 2.0 | 5.0 | 0.00 | 0.05 | 0.00 | 94 | 1011.6 |
| 20260901063112 | 75 | 172 | 1.0 | 5.0 | 0.00 | 0.05 | 0.00 | 94 | 1011.7 |
| 20260901062613 | 75 | 171 | 1.0 | 3.0 | 0.00 | 0.05 | 0.00 | 94 | 1011.7 |
| 20260901062110 | 76 | 184 | 1.0 | 3.0 | 0.00 | 0.05 | 0.00 | 94 | 1011.9 |
| 20260901061608 | 76 | 184 | 2.0 | 3.0 | 0.00 | 0.05 | 0.00 | 94 | 1012.0 |
| 20260901061109 | 76 | 184 | 2.0 | 3.0 | 0.00 | 0.05 | 0.00 | 94 | 1012.1 |
| 20260901060837 | 76 | 184 | 1.0 | 3.0 | 0.00 | 0.05 | 0.00 | 93 | 1011.9 |
| 20260901060104 | 76 | 184 | 1.0 | 3.0 | 0.00 | 0.05 | 0.00 | 93 | 1011.9 |
| 20260901055834 | 76 | 183 | 1.0 | 3.0 | 0.00 | 0.05 | 0.00 | 93 | 1011.9 |
| 20260901055102 | 76 | 183 | 1.0 | 3.0 | 0.00 | 0.06 | 0.00 | 93 | 1011.9 |
| 20260901054602 | 76 | 184 | 0.0 | 3.0 | 0.00 | 0.06 | 0.00 | 93 | 1011.9 |
| 20260901054336 | 76 | 185 | 0.0 | 3.0 | 0.00 | 0.06 | 0.00 | 93 | 1011.8 |
| 20260901053600 | 76 | 178 | 0.0 | 2.0 | 0.00 | 0.06 | 0.00 | 93 | 1011.9 |
| 20260901053059 | 76 | 178 | 1.0 | 2.0 | 0.00 | 0.06 | 0.00 | 92 | 1011.7 |
| 20260901052600 | 76 | 178 | 1.0 | 2.0 | 0.00 | 0.06 | 0.00 | 92 | 1011.7 |
| 20260901052104 | 77 | 179 | 0.0 | 2.0 | 0.00 | 0.06 | 0.00 | 92 | 1011.8 |
| 20260901052100 | 76 | 178 | 1.0 | 2.0 | 0.00 | 0.06 | 0.00 | 92 | 1011.7 |
| 20260901051055 | 77 | 179 | 0.0 | 1.0 | 0.00 | 0.06 | 0.00 | 92 | 1011.8 |
| 20260901050554 | 77 | 179 | 0.0 | 2.0 | 0.00 | 0.06 | 0.00 | 92 | 1011.7 |
| 20260901050054 | 77 | 179 | 1.0 | 3.0 | 0.00 | 0.06 | 0.00 | 92 | 1011.7 |
| 20260901045824 | 77 | 179 | 1.0 | 3.0 | 0.00 | 0.06 | 0.06 | 92 | 1011.7 |
| 20260901045053 | 77 | 179 | 1.0 | 3.0 | 0.00 | 0.06 | 0.06 | 92 | 1011.7 |
| 20260901044550 | 77 | 180 | 1.0 | 4.0 | 0.00 | 0.06 | 0.06 | 92 | 1011.7 |
| 20260901044051 | 77 | 180 | 2.0 | 4.0 | 0.00 | 0.06 | 0.06 | 92 | 1011.7 |
| 20260901043546 | 77 | 180 | 2.0 | 4.0 | 0.00 | 0.06 | 0.06 | 92 | 1011.7 |
| 20260901043046 | 77 | 183 | 2.0 | 4.0 | 0.00 | 0.06 | 0.06 | 92 | 1011.7 |
| 20260901042544 | 77 | 185 | 2.0 | 4.0 | 0.00 | 0.06 | 0.06 | 92 | 1011.7 |
| 20260901042044 | 77 | 190 | 2.0 | 4.0 | 0.00 | 0.06 | 0.06 | 92 | 1011.6 |
| 20260901041542 | 77 | 183 | 2.0 | 6.0 | 0.00 | 0.06 | 0.06 | 92 | 1011.6 |
| 20260901041314 | 77 | 188 | 2.0 | 6.0 | 0.00 | 0.06 | 0.06 | 91 | 1011.6 |
| 20260901040539 | 78 | 178 | 2.0 | 4.0 | 0.00 | 0.06 | 0.06 | 91 | 1011.7 |
| 20260901040035 | 78 | 177 | 1.0 | 3.0 | 0.00 | 0.06 | 0.06 | 91 | 1011.7 |
| 20260901035533 | 78 | 193 | 0.0 | 0.0 | 0.00 | 0.06 | 0.06 | 91 | 1011.7 |
| 20260901035300 | 78 | 188 | 0.0 | 0.0 | 0.00 | 0.06 | 0.06 | 90 | 1011.7 |
| 20260901034531 | 78 | 188 | 0.0 | 0.0 | 0.00 | 0.06 | 0.06 | 90 | 1011.8 |
| 20260901034029 | 78 | 188 | 0.0 | 0.0 | 0.00 | 0.06 | 0.06 | 90 | 1011.8 |
| 20260901033526 | 79 | 186 | 1.0 | 4.0 | 0.00 | 0.06 | 0.06 | 90 | 1011.8 |
| 20260901033027 | 79 | 188 | 2.0 | 4.0 | 0.00 | 0.06 | 0.06 | 89 | 1011.7 |
| 20260901032526 | 79 | 186 | 3.0 | 5.0 | 0.00 | 0.06 | 0.06 | 89 | 1011.7 |
| 20260901032024 | 79 | 186 | 3.0 | 6.0 | 0.00 | 0.06 | 0.06 | 89 | 1011.6 |
| 20260901031525 | 79 | 189 | 3.0 | 6.0 | 0.00 | 0.06 | 0.06 | 89 | 1011.7 |
| 20260901031023 | 80 | 195 | 3.0 | 5.0 | 0.00 | 0.06 | 0.06 | 88 | 1011.7 |
| 20260901031019 | 79 | 192 | 3.0 | 6.0 | 0.00 | 0.06 | 0.06 | 89 | 1011.6 |
| 20260901030014 | 80 | 190 | 2.0 | 5.0 | 0.00 | 0.06 | 0.06 | 88 | 1011.9 |
| 20260901025517 | 80 | 183 | 2.0 | 5.0 | 0.00 | 0.06 | 0.06 | 88 | 1011.9 |
| 20260901025013 | 80 | 189 | 2.0 | 5.0 | 0.00 | 0.06 | 0.06 | 88 | 1011.8 |
| 20260901024746 | 80 | 182 | 2.0 | 5.0 | 0.00 | 0.06 | 0.06 | 88 | 1011.9 |
| 20260901024013 | 80 | 180 | 2.0 | 5.0 | 0.00 | 0.06 | 0.06 | 88 | 1011.7 |
| 20260901023510 | 80 | 175 | 3.0 | 6.0 | 0.00 | 0.06 | 0.06 | 88 | 1011.7 |
| 20260901023010 | 80 | 181 | 3.0 | 6.0 | 0.00 | 0.06 | 0.06 | 88 | 1011.8 |
| 20260901022510 | 80 | 188 | 3.0 | 6.0 | 0.00 | 0.06 | 0.06 | 87 | 1011.7 |
| 20260901022011 | 80 | 189 | 2.0 | 5.0 | 0.00 | 0.06 | 0.06 | 87 | 1011.7 |
| 20260901021510 | 80 | 188 | 2.0 | 5.0 | 0.00 | 0.06 | 0.06 | 87 | 1011.8 |
| 20260901021011 | 81 | 160 | 2.0 | 5.0 | 0.00 | 0.06 | 0.06 | 87 | 1011.8 |
| 20260901020512 | 81 | 185 | 2.0 | 4.0 | 0.00 | 0.06 | 0.06 | 86 | 1011.8 |
| 20260901020011 | 81 | 185 | 2.0 | 6.0 | 0.00 | 0.06 | 0.06 | 86 | 1011.8 |
| 20260901015510 | 81 | 194 | 3.0 | 7.0 | 0.00 | 0.06 | 0.06 | 86 | 1011.8 |
| 20260901015009 | 81 | 186 | 2.0 | 7.0 | 0.00 | 0.06 | 0.06 | 85 | 1011.6 |
| 20260901014511 | 81 | 206 | 2.0 | 6.0 | 0.00 | 0.06 | 0.06 | 85 | 1011.6 |
| 20260901014005 | 82 | 182 | 2.0 | 6.0 | 0.00 | 0.06 | 0.06 | 85 | 1011.6 |
| 20260901013736 | 82 | 188 | 2.0 | 6.0 | 0.00 | 0.06 | 0.06 | 85 | 1011.5 |
| 20260901013007 | 82 | 211 | 2.0 | 6.0 | 0.00 | 0.06 | 0.06 | 84 | 1011.4 |
| 20260901012737 | 82 | 165 | 2.0 | 5.0 | 0.00 | 0.06 | 0.06 | 84 | 1011.4 |
| 20260901012006 | 82 | 184 | 3.0 | 5.0 | 0.00 | 0.06 | 0.06 | 84 | 1011.2 |
| 20260901011507 | 82 | 205 | 3.0 | 6.0 | 0.00 | 0.06 | 0.06 | 83 | 1011.1 |
| 20260901011002 | 83 | 185 | 2.0 | 6.0 | 0.00 | 0.06 | 0.06 | 83 | 1011.2 |
| 20260901010501 | 83 | 197 | 2.0 | 6.0 | 0.00 | 0.06 | 0.06 | 83 | 1011.1 |
| 20260901010004 | 83 | 199 | 3.0 | 6.0 | 0.00 | 0.06 | 0.06 | 82 | 1011.0 |
| 20260901005732 | 83 | 197 | 2.0 | 6.0 | 0.00 | 0.06 | 0.06 | 82 | 1010.9 |
| 20260901005003 | 83 | 190 | 2.0 | 4.0 | 0.00 | 0.06 | 0.06 | 81 | 1010.8 |
| 20260901004503 | 83 | 186 | 2.0 | 4.0 | 0.00 | 0.06 | 0.06 | 81 | 1010.8 |
| 20260901003958 | 83 | 184 | 2.0 | 5.0 | 0.00 | 0.06 | 0.06 | 81 | 1010.7 |
| 20260901003730 | 83 | 186 | 4.0 | 9.0 | 0.00 | 0.06 | 0.06 | 81 | 1010.5 |
| 20260901002958 | 84 | 186 | 4.0 | 9.0 | 0.00 | 0.06 | 0.06 | 80 | 1010.5 |
| 20260901002458 | 84 | 178 | 3.0 | 7.0 | 0.00 | 0.06 | 0.06 | 80 | 1010.5 |
| 20260901001958 | 84 | 190 | 3.0 | 7.0 | 0.00 | 0.06 | 0.06 | 79 | 1010.4 |
| 20260901001500 | 84 | 215 | 3.0 | 7.0 | 0.00 | 0.06 | 0.06 | 79 | 1010.4 |
| 20260901000954 | 84 | 215 | 3.0 | 7.0 | 0.00 | 0.06 | 0.06 | 79 | 1010.4 |
| 20260901000457 | 85 | 193 | 3.0 | 7.0 | 0.00 | 0.06 | 0.06 | 78 | 1010.3 |
| 20260831235954 | 85 | 197 | 3.0 | 7.0 | 0.00 | 0.06 | 0.06 | 78 | 1010.2 |
| 20260831235727 | 85 | 213 | 2.0 | 7.0 | 0.00 | 0.06 | 0.06 | 78 | 1010.3 |
| 20260831235000 | 85 | 169 | 4.0 | 8.0 | 0.00 | 0.06 | 0.06 | 77 | 1010.1 |
| 20260831234954 | 85 | 243 | 3.0 | 8.0 | 0.00 | 0.06 | 0.06 | 77 | 1010.3 |
| 20260831233954 | 85 | 199 | 4.0 | 8.0 | 0.00 | 0.06 | 0.06 | 77 | 1010.0 |
| 20260831233454 | 86 | 193 | 4.0 | 8.0 | 0.00 | 0.06 | 0.06 | 76 | 1009.9 |
| 20260831232946 | 86 | 172 | 3.0 | 7.0 | 0.00 | 0.06 | 0.06 | 76 | 1009.9 |
| 20260831232444 | 86 | 190 | 3.0 | 6.0 | 0.00 | 0.06 | 0.06 | 76 | 1010.0 |
| 20260831231944 | 86 | 191 | 2.0 | 6.0 | 0.00 | 0.06 | 0.06 | 75 | 1009.9 |
| 20260831231443 | 86 | 177 | 2.0 | 4.0 | 0.00 | 0.06 | 0.06 | 75 | 1010.0 |
| 20260831231216 | 86 | 192 | 2.0 | 4.0 | 0.00 | 0.06 | 0.06 | 74 | 1010.0 |
| 20260831230442 | 86 | 192 | 1.0 | 3.0 | 0.00 | 0.06 | 0.06 | 74 | 1009.8 |
| 20260831225938 | 86 | 190 | 0.0 | 2.0 | 0.00 | 0.06 | 0.06 | 74 | 1009.7 |
| 20260831225438 | 86 | 189 | 1.0 | 2.0 | 0.00 | 0.06 | 0.06 | 74 | 1009.6 |
| 20260831224935 | 86 | 180 | 2.0 | 5.0 | 0.00 | 0.06 | 0.06 | 74 | 1009.5 |
| 20260831224436 | 87 | 178 | 3.0 | 6.0 | 0.00 | 0.06 | 0.06 | 73 | 1009.5 |
| 20260831223933 | 87 | 156 | 4.0 | 9.0 | 0.00 | 0.06 | 0.06 | 73 | 1009.6 |
| 20260831223435 | 87 | 170 | 4.0 | 9.0 | 0.00 | 0.06 | 0.06 | 73 | 1009.7 |
| 20260831222932 | 87 | 180 | 4.0 | 8.0 | 0.00 | 0.06 | 0.06 | 73 | 1009.8 |
| 20260831222430 | 87 | 172 | 4.0 | 7.0 | 0.00 | 0.06 | 0.06 | 72 | 1009.9 |
| 20260831222201 | 87 | 189 | 4.0 | 7.0 | 0.00 | 0.06 | 0.06 | 72 | 1009.9 |
| 20260831221703 | 88 | 175 | 3.0 | 7.0 | 0.00 | 0.06 | 0.06 | 72 | 1009.8 |
| 20260831220931 | 88 | 196 | 2.0 | 7.0 | 0.00 | 0.06 | 0.06 | 71 | 1009.8 |
| 20260831220700 | 88 | 195 | 2.0 | 6.0 | 0.00 | 0.06 | 0.06 | 71 | 1009.8 |
| 20260831215930 | 88 | 180 | 3.0 | 7.0 | 0.00 | 0.06 | 0.06 | 71 | 1009.9 |
| 20260831215425 | 88 | 170 | 4.0 | 7.0 | 0.00 | 0.06 | 0.06 | 70 | 1009.9 |
| 20260831214922 | 89 | 182 | 4.0 | 9.0 | 0.00 | 0.06 | 0.06 | 70 | 1010.0 |
| 20260831214422 | 89 | 168 | 4.0 | 10.0 | 0.00 | 0.06 | 0.06 | 69 | 1010.0 |
| 20260831213925 | 89 | 252 | 4.0 | 11.0 | 0.00 | 0.06 | 0.06 | 68 | 1009.9 |
| 20260831213921 | 89 | 198 | 4.0 | 11.0 | 0.00 | 0.06 | 0.06 | 69 | 1009.9 |
| 20260831212921 | 90 | 187 | 4.0 | 10.0 | 0.00 | 0.06 | 0.06 | 68 | 1009.9 |
| 20260831212417 | 90 | 186 | 4.0 | 10.0 | 0.00 | 0.06 | 0.06 | 67 | 1009.8 |
| 20260831211915 | 90 | 194 | 4.0 | 12.0 | 0.00 | 0.06 | 0.06 | 66 | 1009.8 |
| 20260831211416 | 91 | 169 | 3.0 | 12.0 | 0.00 | 0.06 | 0.06 | 65 | 1009.8 |
| 20260831210915 | 91 | 232 | 3.0 | 8.0 | 0.00 | 0.06 | 0.06 | 66 | 1009.7 |
| 20260831210417 | 91 | 169 | 4.0 | 8.0 | 0.00 | 0.06 | 0.06 | 66 | 1009.7 |
| 20260831205915 | 91 | 189 | 5.0 | 9.0 | 0.00 | 0.06 | 0.06 | 66 | 1009.6 |
| 20260831205415 | 90 | 206 | 5.0 | 9.0 | 0.00 | 0.06 | 0.06 | 67 | 1009.5 |
| 20260831204914 | 91 | 170 | 4.0 | 9.0 | 0.00 | 0.06 | 0.06 | 67 | 1009.6 |
| 20260831204413 | 91 | 242 | 3.0 | 8.0 | 0.00 | 0.06 | 0.06 | 65 | 1009.6 |
| 20260831203917 | 91 | 178 | 4.0 | 9.0 | 0.00 | 0.06 | 0.06 | 67 | 1009.7 |
| 20260831203412 | 90 | 177 | 4.0 | 9.0 | 0.00 | 0.06 | 0.06 | 67 | 1009.6 |
| 20260831202909 | 90 | 182 | 4.0 | 11.0 | 0.00 | 0.06 | 0.06 | 67 | 1009.7 |
| 20260831202411 | 89 | 149 | 4.0 | 11.0 | 0.00 | 0.06 | 0.06 | 66 | 1009.6 |
| 20260831201906 | 90 | 215 | 3.0 | 8.0 | 0.00 | 0.06 | 0.06 | 67 | 1009.7 |
| 20260831201405 | 90 | 248 | 3.0 | 6.0 | 0.00 | 0.06 | 0.06 | 67 | 1009.7 |
| 20260831200908 | 89 | 148 | 5.0 | 11.0 | 0.00 | 0.06 | 0.06 | 69 | 1009.6 |
| 20260831200406 | 89 | 224 | 6.0 | 13.0 | 0.00 | 0.06 | 0.06 | 68 | 1009.8 |
| 20260831195904 | 89 | 186 | 5.0 | 13.0 | 0.00 | 0.06 | 0.06 | 67 | 1009.8 |
| 20260831195405 | 90 | 186 | 3.0 | 8.0 | 0.00 | 0.06 | 0.06 | 67 | 1009.9 |
| 20260831194859 | 90 | 213 | 3.0 | 7.0 | 0.00 | 0.06 | 0.06 | 66 | 1009.9 |
| 20260831194401 | 89 | 152 | 3.0 | 7.0 | 0.00 | 0.06 | 0.06 | 66 | 1009.8 |
| 20260831193857 | 89 | 203 | 3.0 | 7.0 | 0.00 | 0.06 | 0.06 | 66 | 1009.8 |
| 20260831193357 | 89 | 173 | 4.0 | 9.0 | 0.00 | 0.06 | 0.06 | 67 | 1009.9 |
| 20260831192857 | 89 | 244 | 4.0 | 9.0 | 0.00 | 0.06 | 0.06 | 68 | 1009.9 |
| 20260831192358 | 88 | 225 | 3.0 | 6.0 | 0.00 | 0.06 | 0.06 | 68 | 1009.9 |
| 20260831192122 | 88 | 185 | 4.0 | 11.0 | 0.00 | 0.06 | 0.06 | 67 | 1009.9 |
| 20260831191352 | 89 | 198 | 4.0 | 11.0 | 0.00 | 0.06 | 0.06 | 68 | 1010.0 |
| 20260831190851 | 89 | 182 | 4.0 | 8.0 | 0.00 | 0.06 | 0.06 | 67 | 1010.0 |
| 20260831190351 | 89 | 169 | 3.0 | 9.0 | 0.00 | 0.06 | 0.06 | 67 | 1010.1 |
| 20260831185851 | 89 | 225 | 5.0 | 10.0 | 0.00 | 0.06 | 0.06 | 67 | 1010.2 |
| 20260831185623 | 88 | 177 | 5.0 | 14.0 | 0.00 | 0.06 | 0.06 | 68 | 1010.2 |
| 20260831184849 | 87 | 207 | 4.0 | 14.0 | 0.00 | 0.06 | 0.06 | 68 | 1010.2 |
| 20260831184347 | 88 | 172 | 4.0 | 8.0 | 0.00 | 0.06 | 0.06 | 67 | 1010.3 |
| 20260831183849 | 88 | 186 | 3.0 | 9.0 | 0.00 | 0.06 | 0.06 | 67 | 1010.1 |
| 20260831183348 | 88 | 226 | 3.0 | 9.0 | 0.00 | 0.06 | 0.06 | 66 | 1010.1 |
| 20260831182846 | 87 | 199 | 3.0 | 9.0 | 0.00 | 0.06 | 0.06 | 69 | 1010.1 |
| 20260831182346 | 87 | 180 | 4.0 | 12.0 | 0.00 | 0.06 | 0.06 | 68 | 1010.1 |